カタログに戻る

SL-16 DEB

運用中LEO
NORAD 22549·DEBRIS·🇷🇺 Russia

打ち上げ Dec 25, 1992 から Baikonur Cosmodrome

Loading…

次のパス (今後24時間)

TLE

最新Source: Space-Track

元期: Sep 13, 2026, 14:34 UTC

1 22549U 92093HK  26256.60743985  .00001102  00000-0  49257-3 0  9992
2 22549  71.2442  18.0839 0093634  38.1986 322.5728 14.22432304724415

AllMySatでSL-16 DEBをリアルタイム追跡

Download on the App Store